Theta_e
321 322 322 322 322 321 323 324 325 326 325 324 323 327 330 328 335 337 336 346 346 345 345 345 344 343 343 343 343 344 345 346 347 345 343 342 339 338 336 335 334 333 333
321 322 323 323 322 321 322 324 326 326 327 322 322 327 328 331 336 335 337 343 345 346 345 344 344 342 343 342 341 343 345 346 345 343 341 340 338 335 335 334 334 333 333
323 323 323 325 324 322 322 323 324 327 327 325 323 329 329 332 333 336 337 339 340 344 344 343 343 343 342 342 341 342 345 345 343 342 340 338 337 336 334 334 333 333 331
325 323 323 323 325 322 321 321 322 322 323 324 327 326 327 331 332 336 338 338 335 338 341 341 342 342 342 342 342 344 344 343 342 339 338 336 334 335 334 333 333 331 330
328 325 323 322 324 321 322 322 321 322 321 322 323 327 328 330 334 338 336 336 336 336 336 340 340 340 342 342 343 345 344 341 339 338 335 334 334 333 333 332 332 330 329
329 326 325 324 324 321 321 320 321 322 322 321 326 325 328 330 333 334 334 335 335 335 335 335 337 338 340 341 342 344 344 340 337 336 336 335 334 333 332 332 331 329 328
327 325 324 326 323 321 322 321 320 319 319 322 323 327 328 330 331 332 332 332 333 333 332 334 334 334 335 339 340 342 342 339 338 335 335 334 333 332 332 331 330 329 328
327 326 323 321 323 321 321 321 320 320 321 323 323 323 317 321 327 329 330 330 330 331 331 332 333 332 333 334 335 339 340 339 338 335 333 333 332 331 331 329 329 328 327
327 328 325 324 325 322 321 320 321 320 317 320 325 317 316 314 318 327 327 328 328 329 330 331 331 332 332 333 336 338 339 339 337 335 333 332 331 330 329 328 328 327 327
328 328 327 326 324 323 322 322 323 321 321 320 320 323 321 322 316 318 325 326 327 327 328 329 329 330 331 332 336 337 336 337 336 334 332 331 331 330 329 328 327 327 326
326 328 327 326 325 323 323 324 323 323 322 321 319 318 320 319 319 319 317 321 325 326 327 329 329 329 331 332 334 335 334 334 333 333 332 331 330 329 328 327 327 326 325
324 326 329 327 326 325 327 324 323 324 323 322 322 322 321 317 319 317 319 318 319 323 327 329 329 330 331 332 334 332 330 329 327 328 329 331 331 330 328 327 327 326 325
323 324 325 327 326 328 328 326 325 324 324 323 321 322 322 321 320 322 320 316 316 321 324 328 330 329 332 331 331 331 330 326 324 324 325 326 328 329 330 329 328 326 325
323 325 325 326 328 328 328 326 325 324 324 321 322 322 322 323 323 323 320 318 314 317 322 323 329 330 330 332 332 330 327 324 322 321 321 322 324 326 326 327 326 326 326
326 326 325 326 327 328 327 326 324 323 324 324 324 322 321 321 321 319 320 322 320 315 317 323 324 329 331 332 332 329 326 324 323 320 320 320 321 321 322 322 322 322 323
324 325 325 325 327 326 326 326 328 326 326 325 324 322 321 321 320 321 321 323 323 320 317 323 324 328 329 331 333 328 326 324 322 320 319 318 318 318 318 318 318 319 320
324 326 326 326 326 326 326 325 328 325 323 322 322 321 322 322 320 322 323 324 322 323 319 321 325 327 327 327 331 330 328 323 321 319 320 318 316 315 315 316 316 317 317
325 326 326 327 327 326 325 326 327 326 323 322 320 320 321 321 319 321 322 321 320 322 322 319 322 325 325 327 328 326 326 325 319 320 318 316 314 313 312 313 313 313 312
326 326 325 326 327 327 326 325 326 325 324 322 321 321 322 322 321 321 320 319 319 324 322 320 319 319 321 322 322 319 314 312 315 318 316 315 313 312 312 311 310 310 308
326 327 327 327 329 328 328 328 326 324 325 324 323 323 323 323 322 322 323 320 321 320 320 318 315 313 315 315 316 313 315 318 318 316 315 312 312 313 312 310 310 310 307
323 324 326 329 329 329 329 327 327 325 324 323 323 325 325 324 322 322 323 321 320 319 317 314 311 313 312 312 310 313 314 315 316 313 308 307 307 306 308 310 312 312 308
320 321 320 320 321 328 310 315 323 326 325 324 323 324 323 322 320 317 313 314 318 316 312 311 311 311 312 314 314 314 314 311 310 316 312 308 306 304 306 304 307 306 305
318 318 318 317 312 312 309 310 315 327 325 324 323 324 325 326 321 320 309 309 309 312 314 314 313 312 312 315 315 312 312 313 312 316 314 311 308 306 307 309 305 304 303
319 317 316 314 311 307 304 307 312 325 324 323 322 323 324 321 319 317 315 317 317 315 316 323 319 314 314 316 318 318 315 314 315 317 315 311 313 312 316 314 305 305 304
320 317 316 313 310 306 302 308 319 322 321 321 323 320 319 317 307 307 317 314 313 310 302 302 302 299 298 301 309 314 312 308 305 306 306 302 302 301 304 306 304 302 301
319 320 318 313 309 308 299 300 314 321 318 313 310 310 310 310 300 306 315 314 311 309 304 303 303 300 300 301 303 305 307 303 301 299 305 301 301 300 299 304 304 304 303
Wind_Speed
4 3 3 3 3 3 4 4 5 5 6 7 6 6 8 6 7 4 2 15 15 17 22 23 22 20 20 18 18 16 18 18 20 19 18 19 16 15 16 16 14 14 13
4 4 3 4 4 4 4 5 6 6 6 4 6 6 5 3 7 6 4 8 13 19 22 26 25 22 18 18 17 18 19 20 20 19 18 16 15 16 16 15 15 15 14
6 4 4 3 4 4 6 5 5 5 4 3 6 5 4 6 5 8 7 5 9 18 18 22 23 22 20 20 18 19 21 20 20 19 18 15 14 15 16 16 15 14 14
5 5 4 4 4 4 4 4 3 4 4 4 4 4 4 4 6 9 8 7 6 6 15 22 24 20 20 18 20 23 22 20 18 19 17 16 16 15 15 15 15 14 13
5 5 4 3 4 4 3 3 1 3 2 3 4 5 4 4 6 8 11 9 9 6 6 18 21 22 21 20 22 24 24 21 19 18 17 16 15 15 15 14 15 14 12
5 4 3 4 4 4 3 3 4 3 3 3 5 5 4 2 7 8 10 8 9 9 7 8 7 11 20 19 22 24 25 21 20 18 16 14 15 15 14 14 13 13 11
5 4 4 5 4 5 6 6 3 4 2 3 5 6 5 5 8 6 7 7 8 8 9 8 5 6 7 16 17 18 22 21 20 19 17 14 14 15 15 13 12 12 10
4 4 4 4 5 4 5 5 5 3 2 4 5 4 4 2 5 7 7 6 8 8 7 8 8 10 7 5 9 15 18 19 19 18 17 14 14 15 13 13 12 12 10
5 4 4 5 5 5 5 5 5 6 4 2 10 5 4 3 3 5 8 7 8 6 7 8 8 9 9 7 8 13 16 17 17 16 15 15 14 14 13 12 11 10 8
2 2 2 4 5 4 6 5 5 4 5 8 1 4 4 4 3 7 5 6 7 7 7 7 6 7 7 5 8 11 13 14 16 16 15 14 14 12 12 10 9 8 6
1 3 4 4 6 4 5 7 6 6 3 4 4 3 5 3 3 5 6 5 5 5 5 6 7 6 5 5 2 11 14 12 13 14 14 14 14 13 12 10 9 7 7
1 1 3 5 4 6 6 6 6 6 5 5 4 6 5 4 7 5 6 5 6 5 6 6 6 5 5 5 8 13 13 13 12 10 10 10 11 12 12 11 10 9 8
3 2 2 5 3 5 6 6 6 6 6 6 6 4 3 5 3 7 7 5 4 3 3 4 6 6 8 6 5 9 12 11 11 10 9 10 10 9 9 9 9 10 8
2 3 3 5 5 6 6 6 4 5 6 5 7 6 6 6 6 7 7 11 4 2 4 4 5 7 6 7 7 10 5 10 10 10 8 7 6 9 8 9 8 8 8
2 5 5 6 6 6 8 8 5 5 7 6 7 7 8 6 6 3 4 5 6 4 3 5 3 6 6 6 8 6 5 9 10 9 8 9 9 8 9 9 9 9 7
3 6 6 6 7 6 7 7 7 7 11 7 7 10 8 7 8 6 5 4 5 5 3 3 3 5 5 4 7 5 5 9 9 10 10 9 9 9 10 9 8 7 8
5 6 6 6 7 7 6 8 10 10 11 11 9 8 9 9 7 7 7 6 5 5 8 3 3 3 4 5 5 4 5 5 5 10 10 11 11 11 10 9 9 8 10
4 5 5 7 6 6 6 11 11 10 10 11 11 12 11 6 9 8 5 6 5 5 5 6 2 3 3 7 5 6 4 4 5 10 13 13 13 13 11 10 9 9 9
4 5 5 6 7 6 6 7 11 10 9 9 11 12 11 9 8 7 5 5 4 3 3 4 2 2 3 3 3 2 3 4 5 9 13 13 11 9 9 10 10 11 13
4 4 5 4 6 6 5 8 9 10 9 7 6 9 9 9 10 6 4 4 4 4 5 4 4 3 3 1 4 4 3 3 4 3 5 6 8 10 13 12 13 15 15
5 5 7 8 5 5 4 9 9 8 9 9 6 8 9 10 8 6 4 5 5 7 6 4 3 3 4 3 5 4 4 2 3 4 3 3 4 4 7 11 14 16 16
7 10 7 7 6 3 13 12 9 8 7 8 8 8 8 9 7 9 1 7 7 9 4 5 4 4 4 4 3 4 3 2 2 2 5 4 4 5 6 6 14 16 15
7 8 8 8 7 5 11 11 10 7 6 7 8 9 9 6 5 3 4 6 9 8 8 7 7 5 5 6 6 4 4 3 4 4 4 4 4 6 7 8 13 14 13
7 6 7 7 7 5 12 12 10 7 7 6 7 9 9 6 6 5 5 5 6 7 5 5 7 4 4 5 6 5 6 3 0 2 1 1 3 3 4 4 13 9 5
6 4 6 7 7 4 9 10 9 6 7 7 6 6 8 6 6 8 6 6 5 5 5 10 10 9 10 8 7 4 2 3 2 3 6 3 4 4 3 2 4 6 10
5 6 6 7 8 6 5 9 8 5 6 5 5 5 10 8 8 5 6 7 6 2 3 4 2 3 7 5 5 5 4 3 2 3 3 3 1 3 4 2 3 3 4
Wind_Direction
232 227 244 245 254 222 191 188 183 189 208 216 208 219 206 184 169 160 159 167 170 174 176 170 166 160 168 180 186 169 155 142 131 123 120 118 126 121 113 107 104 101 100
212 217 234 235 240 225 205 179 190 203 216 210 222 221 174 181 151 142 137 154 159 164 163 165 159 160 175 166 181 163 149 134 129 123 117 120 125 120 113 113 111 109 104
206 222 236 238 228 213 194 169 182 201 200 232 224 165 115 145 142 144 141 135 159 168 169 169 162 154 165 172 176 162 142 131 132 123 121 128 124 118 121 119 115 110 110
201 222 235 244 223 182 173 160 182 189 208 216 150 130 110 124 123 145 132 134 139 153 166 163 154 146 173 174 175 159 141 129 128 122 132 131 127 125 123 121 118 113 112
242 213 212 218 198 158 159 144 152 162 184 174 139 131 113 112 128 134 140 141 147 137 154 170 158 157 171 166 167 154 137 134 132 134 134 129 128 125 125 125 124 122 127
277 241 198 207 185 157 151 138 158 194 148 150 134 105 116 89 133 124 127 132 135 135 134 141 139 153 149 165 165 160 138 135 134 138 124 132 131 129 129 130 129 128 128
250 244 229 189 173 165 171 168 156 155 85 143 114 87 79 115 104 120 119 123 125 133 138 130 125 133 151 154 161 155 139 143 141 137 131 135 134 137 137 135 137 135 140
225 220 163 182 162 157 150 156 148 117 111 152 123 124 121 107 108 121 112 120 123 117 130 121 126 133 132 144 147 148 143 145 142 138 137 135 143 142 144 146 151 150 156
224 202 172 172 177 148 152 160 148 131 127 107 150 153 140 140 120 123 122 121 119 116 116 117 116 122 129 135 143 169 153 145 141 137 141 149 151 150 152 158 158 161 164
46 160 156 175 145 138 149 153 146 138 141 150 112 71 106 111 137 128 105 100 119 115 125 120 122 130 137 132 162 172 144 143 146 146 155 159 156 154 161 164 166 170 180
250 232 161 166 137 136 144 148 150 148 131 135 129 118 90 95 121 115 119 131 122 120 116 116 131 138 109 118 141 147 137 142 140 156 162 164 165 167 168 172 180 186 192
2 58 165 150 136 151 152 150 142 144 133 121 119 132 141 138 152 135 129 125 117 130 128 118 132 124 141 113 145 143 138 143 143 154 160 169 176 176 178 185 190 199 200
46 35 105 140 154 145 141 136 139 141 140 140 129 134 109 120 112 122 128 110 105 109 130 126 140 136 147 136 121 133 144 143 144 157 172 182 183 178 188 195 205 210 204
46 48 76 119 145 134 125 119 126 132 131 116 113 100 114 123 126 140 137 144 118 100 133 153 155 146 143 138 153 149 148 146 158 168 179 179 183 192 197 207 216 215 215
44 62 69 88 92 108 121 129 127 103 102 105 99 99 103 105 111 94 116 141 137 129 113 141 126 141 142 141 154 159 154 168 171 169 178 192 200 198 205 215 219 217 215
66 66 76 79 93 104 109 112 104 106 105 102 101 101 101 110 111 115 100 96 83 114 119 90 82 141 137 134 148 146 173 171 178 183 191 202 205 208 215 222 221 216 214
70 70 82 89 87 92 105 107 118 112 111 108 103 109 110 116 115 112 112 107 102 115 124 70 84 126 142 155 176 172 171 184 187 189 199 207 211 213 218 219 219 221 229
93 94 84 96 95 95 100 116 129 125 118 112 122 127 126 116 104 112 110 98 93 74 110 121 114 128 161 176 170 167 194 190 182 203 206 210 214 216 217 224 230 234 239
112 105 103 102 116 103 92 82 111 120 117 117 134 129 130 121 113 103 82 94 87 68 86 122 114 66 68 99 101 80 187 215 212 211 214 218 218 221 227 232 231 236 235
138 143 137 124 117 111 109 109 105 110 113 104 111 126 135 125 120 118 128 153 169 170 158 144 126 98 97 153 149 174 209 215 226 226 224 218 209 223 229 232 233 233 236
113 121 99 80 83 94 115 106 113 121 118 123 117 123 128 129 131 161 172 203 201 158 144 118 127 134 177 159 184 202 190 226 260 195 200 242 216 223 247 241 245 242 241
83 88 90 111 109 93 110 107 116 127 135 138 133 134 131 131 175 218 298 249 179 142 141 148 168 155 197 185 163 184 184 174 292 222 182 262 168 226 248 234 240 240 238
102 95 95 94 92 106 131 138 138 138 132 131 134 144 153 174 183 222 143 135 100 139 165 157 160 189 168 194 159 184 202 195 203 273 175 244 190 234 239 258 249 253 271
117 114 106 104 105 93 119 151 144 142 133 131 139 157 170 163 198 181 188 110 89 65 63 97 117 130 130 123 150 177 200 211 37 45 298 272 34 336 350 23 56 44 344
122 124 126 116 111 90 77 102 115 122 131 141 154 162 155 158 180 174 139 120 95 96 61 87 111 129 128 131 146 117 93 83 11 3 1 78 4 338 344 22 8 19 349
134 139 136 143 146 134 86 82 106 123 110 113 96 94 135 146 142 104 147 141 125 155 114 95 114 166 187 154 89 75 120 96 72 25 291 93 11 23 339 307 303 302 324